[[{"header":{"parameterUnit":"m.s-1","parameterCategory":2,"la1":30.2991,"la2":30.254,"lo1":-89.0895,"lo2":-89.0444,"dy":0.0017,"dx":0.0017,"nx":28,"ny":28,"refTime":"2025-04-17T09:00:00:Z","depth":"0","parameterNumber":2,"parameterNumberName":"U-component_of_CURRENTS"},"data":[0,0,0,0,0,0,0,0,0,0,0,0,0,0,0,0,0,0,0,0,0,0,0,0,0,0,0,0,0,0,0,0,0,0,0,0,0,0,0,0,0,0,0,0,0,0,0,0,0,0,0,0,0,0,0,0,0,0,-0.3624,-0.3626,0,-0.3827,-0.383,-0.3833,-0.3827,-0.3824,-0.382,-0.3817,-0.3804,-0.3807,-0.381,0,0,0,0,0,0,0,0,0,0,0,0,0,-0.3302,-0.3308,-0.3624,-0.3626,-0.3628,-0.3827,-0.383,-0.3833,-0.3827,-0.3823,-0.3819,-0.3815,-0.3803,-0.3807,-0.381,0,0,0,0,0,0,0,0,0,0,0,0,0,-0.3472,-0.331,-0.3624,-0.3644,-0.3648,-0.3826,-0.383,-0.3834,-0.3828,-0.3823,-0.3818,-0.3814,-0.3802,-0.3806,-0.381,-0.3937,0,0,-0.3823,-0.3825,0,0,0,0,0,0,0,0,-0.3463,-0.3485,-0.3639,-0.3643,-0.3647,-0.3791,-0.3711,-0.3856,-0.383,-0.3766,-0.3817,-0.3811,-0.378,-0.3785,-0.3847,-0.3936,-0.3936,-0.3823,-0.3826,-0.3828,-0.3829,0,0,0,0,0,0,0,-0.3451,-0.3477,-0.3711,-0.3642,-0.3647,-0.3667,-0.3686,-0.3741,-0.3799,-0.3771,-0.377,-0.3785,-0.378,-0.3843,-0.3845,-0.3935,-0.3823,-0.3827,-0.383,-0.3831,-0.4043,-0.4046,0,0,0,0,0,0,-0.3417,-0.3466,-0.3704,-0.3716,-0.3534,-0.3676,-0.3698,-0.3755,-0.3803,-0.3806,-0.3789,-0.3783,-0.3838,-0.3841,-0.3844,-0.388,-0.3828,-0.3832,-0.3834,-0.404,-0.4044,-0.4047,0,0,0,0,0,0,-0.341,-0.3438,-0.3696,-0.3587,-0.362,-0.3686,-0.3751,-0.3762,-0.3797,-0.3818,-0.3816,-0.3808,-0.3834,-0.3838,-0.3908,-0.3882,-0.3834,-0.3837,-0.4036,-0.4041,-0.4045,-0.4023,0,0,0,0,0,0,-0.3401,-0.3436,-0.3473,-0.3587,-0.3625,-0.3781,-0.3756,-0.3769,-0.3812,-0.3807,-0.3835,-0.3831,-0.3831,-0.3903,-0.3912,-0.3887,-0.3841,-0.4032,-0.4038,-0.4044,-0.402,-0.4027,-0.4032,0,0,0,0,0,-0.339,-0.3456,-0.3475,-0.3503,-0.3674,-0.3782,-0.3805,-0.3836,-0.3817,-0.3848,-0.3887,-0.3828,-0.3944,-0.3911,-0.3921,-0.3895,-0.4029,-0.4037,-0.4043,-0.4017,-0.4025,-0.4032,0,0,0,0,0,0,-0.3326,-0.3466,-0.3487,-0.359,-0.3666,-0.3777,-0.3814,-0.3841,-0.3908,-0.389,-0.39,-0.3903,-0.395,-0.396,-0.3922,-0.3982,-0.3966,-0.3975,-0.3942,-0.395,-0.3956,-0.3845,-0.3844,0,0,0,0,0,-0.3336,-0.3427,-0.3536,-0.3613,-0.365,-0.3735,-0.3783,-0.3807,-0.3877,-0.39,-0.393,-0.3961,-0.4003,-0.4001,-0.4055,-0.4103,-0.4023,-0.4091,-0.4097,-0.4101,-0.4025,-0.3898,-0.388,-0.407,-0.407,-0.407,0,0,-0.3323,-0.3417,-0.3461,-0.3606,-0.3668,-0.372,-0.3752,-0.3822,-0.3839,-0.389,-0.3934,-0.3999,-0.4034,-0.4085,-0.41,-0.4071,-0.403,-0.411,-0.4113,-0.4032,-0.3902,-0.3882,-0.3864,-0.4075,-0.4074,-0.4073,0,0,-0.3322,-0.3434,-0.3485,-0.3559,-0.3655,-0.3717,-0.3728,-0.384,-0.3857,-0.3951,-0.3969,-0.402,-0.4114,-0.4109,-0.4121,-0.42,-0.4085,-0.4222,-0.4127,-0.4007,-0.3986,-0.3967,-0.3911,-0.3887,-0.4198,-0.4198,-0.4198,0,-0.328,-0.3371,-0.3509,-0.3565,-0.3585,-0.3702,-0.3705,-0.3786,-0.39,-0.3885,-0.3947,-0.404,-0.4107,-0.4076,-0.4125,-0.4196,-0.412,-0.4087,-0.4001,-0.3979,-0.3959,-0.3906,-0.3879,-0.4197,-0.4197,-0.4197,-0.4197,0,-0.3299,-0.3364,-0.3399,-0.35,-0.3561,-0.3595,-0.3693,-0.3744,-0.3798,-0.3845,-0.3866,-0.3987,-0.4,-0.4063,-0.413,-0.4028,-0.4025,-0.4034,-0.395,-0.3936,-0.3887,-0.3858,-0.4197,-0.4197,-0.4197,-0.4197,0,0,-0.3174,-0.3361,-0.3357,-0.338,-0.3506,-0.3556,-0.3587,-0.3616,-0.3604,-0.3719,-0.3666,-0.3803,-0.3838,-0.3855,-0.3928,-0.3855,-0.3749,-0.3878,-0.3872,-0.3765,-0.3491,-0.3467,-0.3435,-0.3707,-0.3701,-0.3696,-0.3535,0,-0.3097,-0.3166,-0.3267,-0.329,-0.332,-0.3413,-0.3435,-0.3488,-0.3554,-0.3571,-0.3616,-0.3656,-0.3762,-0.379,-0.3724,-0.377,-0.3659,-0.3792,-0.3566,-0.356,-0.3489,-0.3394,-0.3277,-0.3117,-0.3507,-0.3502,-0.3499,0,-0.3032,-0.3093,-0.3095,-0.3175,-0.3184,-0.3214,-0.3223,-0.3268,-0.3313,-0.3355,-0.335,-0.3428,-0.3407,-0.3502,-0.34,-0.3469,-0.3441,-0.345,-0.3443,-0.3375,-0.3478,-0.3186,-0.305,-0.3038,-0.3454,-0.3458,-0.3461,0,-0.2871,-0.2952,-0.2937,-0.2971,-0.3095,-0.3069,-0.3112,-0.3172,-0.3198,-0.3209,-0.3234,-0.3192,-0.3227,-0.3136,-0.3239,-0.3277,-0.3107,-0.3167,-0.3082,-0.3085,-0.2912,-0.2908,-0.2664,-0.2962,-0.2962,-0.2963,-0.2963,0,-0.2756,-0.2748,-0.2869,-0.2881,-0.2852,-0.2959,-0.2935,-0.2981,-0.3028,-0.3044,-0.3109,-0.3112,-0.3126,-0.3097,-0.3112,-0.3024,-0.2986,-0.2994,-0.2993,-0.2921,-0.292,-0.2846,-0.2905,-0.2957,-0.2958,-0.2959,-0.296,0,-0.2619,-0.2691,-0.2708,-0.2786,-0.2803,-0.2794,-0.2879,-0.2878,-0.2936,-0.2952,-0.2953,-0.3019,-0.2979,-0.299,-0.2904,-0.2889,-0.2755,-0.2767,-0.2728,-0.2722,-0.2624,-0.269,-0.2422,-0.2354,-0.2595,-0.2593,-0.2591,0,-0.2564,-0.2559,-0.2638,-0.2644,-0.2681,-0.2702,-0.2719,-0.2812,-0.2837,-0.291,-0.2901,-0.2889,-0.2873,-0.2761,-0.2696,-0.2594,-0.2637,-0.2441,-0.2472,-0.2521,-0.2593,-0.2661,-0.2629,-0.228,-0.2275,-0.2272,-0.2269,0,-0.2446,-0.2474,-0.2494,-0.252,-0.2537,-0.2568,-0.2608,-0.2624,-0.2728,-0.2745,-0.2756,-0.2739,-0.2664,-0.253,-0.2431,-0.2369,-0.2386,-0.2364,-0.2364,-0.2242,-0.2335,-0.2305,-0.2566,-0.2237,-0.2241,-0.2243,-0.2245,-0.2246,-0.2338,-0.2327,-0.2354,-0.2359,-0.2388,-0.2395,-0.2371,-0.245,-0.2464,-0.2483,-0.2557,-0.2502,-0.2426,-0.2262,-0.2193,-0.2043,-0.2135,-0.1994,-0.2051,-0.2101,-0.2051,-0.2278,-0.1993,-0.1995,-0.1996,-0.1997,-0.1999,0,-0.2185,-0.2186,-0.219,-0.2194,-0.2161,-0.2232,-0.2256,-0.2205,-0.2184,-0.2262,-0.225,-0.22,-0.2055,-0.2006,-0.1866,-0.177,-0.173,-0.1742,-0.1777,-0.1743,-0.1856,-0.1859,-0.1589,-0.1589,-0.1589,-0.159,-0.159,-0.159,-0.2101,-0.2042,-0.2048,-0.1945,-0.1948,-0.1856,-0.1834,-0.1796,-0.1801,-0.1747,-0.1786,-0.181,-0.1839,-0.1937,-0.1779,-0.1675,-0.1648,-0.1593,-0.1645,-0.1738,-0.1766,-0.1794,-0.1804,-0.1527,-0.1527,-0.1444,-0.1444,-0.1444]},{"header":{"parameterUnit":"m.s-1","parameterCategory":2,"la1":30.2991,"la2":30.254,"lo1":-89.0895,"lo2":-89.0444,"dy":0.0017,"dx":0.0017,"nx":28,"ny":28,"refTime":"2025-04-17T09:00:00:Z","depth":"0","parameterNumber":3,"parameterNumberName":"V-component_of_CURRENTS"},"data":[0,0,0,0,0,0,0,0,0,0,0,0,0,0,0,0,0,0,0,0,0,0,0,0,0,0,0,0,0,0,0,0,0,0,0,0,0,0,0,0,0,0,0,0,0,0,0,0,0,0,0,0,0,0,0,0,0,0,0.0124,0.0126,0,0.038,0.0384,0.0387,0.0528,0.0528,0.0527,0.0527,0.0774,0.078,0.0787,0,0,0,0,0,0,0,0,0,0,0,0,0,-0.0123,-0.012,0.0124,0.0127,0.0129,0.038,0.0384,0.0388,0.0528,0.0528,0.0527,0.0527,0.0772,0.078,0.0788,0,0,0,0,0,0,0,0,0,0,0,0,0,0.0049,-0.0119,0.0124,0.0224,0.0235,0.0379,0.0384,0.0389,0.0528,0.0528,0.0527,0.0527,0.0769,0.0779,0.0789,0.0859,0,0,0.082,0.0824,0,0,0,0,0,0,0,0,0.0039,0.0059,0.0207,0.0217,0.023,0.0416,0.0387,0.0544,0.0528,0.0424,0.0527,0.0527,0.0649,0.0669,0.0728,0.0871,0.0881,0.0821,0.0827,0.0831,0.0834,0,0,0,0,0,0,0,0.0027,0.005,0.0232,0.0209,0.0224,0.0297,0.0321,0.0419,0.054,0.0433,0.0442,0.046,0.0656,0.0718,0.0734,0.0885,0.0821,0.083,0.0836,0.084,0.1015,0.1014,0,0,0,0,0,0,-0.0023,0.0038,0.0224,0.0239,0.0124,0.0301,0.0328,0.0362,0.054,0.0565,0.046,0.0466,0.0701,0.0722,0.0744,0.0779,0.0831,0.0841,0.0847,0.1017,0.1015,0.1013,0,0,0,0,0,0,-0.0029,-0.0008,0.0214,0.0138,0.017,0.0304,0.0342,0.0367,0.0416,0.0559,0.0586,0.0479,0.0701,0.0729,0.0816,0.0791,0.0846,0.0855,0.1018,0.1016,0.1014,0.0887,0,0,0,0,0,0,-0.0037,-0.0012,-0.0004,0.0135,0.0173,0.0264,0.0343,0.0372,0.0425,0.0434,0.0585,0.0609,0.0703,0.08,0.0826,0.0807,0.0863,0.102,0.1017,0.1015,0.0893,0.0881,0.087,0,0,0,0,0,-0.0047,-0.0042,-0.0004,0.0018,0.018,0.0262,0.0288,0.0387,0.0425,0.0433,0.0542,0.0603,0.0799,0.0809,0.0839,0.0822,0.1021,0.1018,0.1015,0.0898,0.0883,0.0871,0,0,0,0,0,0,-0.0141,-0.0024,0.002,0.0062,0.0138,0.0282,0.0301,0.037,0.0469,0.0474,0.0613,0.0645,0.0704,0.0777,0.0783,0.0858,0.0909,0.0912,0.081,0.0797,0.0786,0.0756,0.0871,0,0,0,0,0,-0.0162,-0.0129,-0.0014,0.0015,0.0043,0.0168,0.0215,0.0278,0.0381,0.0425,0.0532,0.0632,0.0719,0.0767,0.0853,0.0912,0.0944,0.0909,0.0898,0.0888,0.088,0.0873,0.086,0.1002,0.1002,0.1002,0,0,-0.0192,-0.0124,-0.0105,-0.0005,0.0066,0.0098,0.0196,0.0245,0.0281,0.0435,0.0508,0.0601,0.0724,0.0786,0.0816,0.0845,0.0867,0.0884,0.0874,0.0873,0.0868,0.0854,0.0842,0.1,0.1001,0.1001,0,0,-0.0254,-0.0181,-0.0184,-0.013,-0.0049,0.0032,0.003,0.0156,0.0216,0.0303,0.0407,0.0487,0.063,0.0712,0.0774,0.0749,0.0804,0.0756,0.0687,0.0679,0.0667,0.0657,0.0691,0.0685,0.0753,0.0752,0.0752,0,-0.0302,-0.0271,-0.0177,-0.0169,-0.0137,-0.0015,-0.0019,0.0067,0.0205,0.024,0.0295,0.0483,0.0597,0.0668,0.0672,0.0725,0.0731,0.0733,0.0662,0.0653,0.0645,0.0682,0.0677,0.0746,0.0747,0.0747,0.0748,0,-0.036,-0.0339,-0.0342,-0.0286,-0.0244,-0.0228,-0.0117,-0.0071,0.0015,0.0106,0.0188,0.0349,0.0453,0.0496,0.0601,0.0594,0.0623,0.0644,0.0693,0.0622,0.0667,0.0664,0.0737,0.0739,0.0741,0.0742,0,0,-0.0454,-0.0397,-0.0398,-0.0394,-0.0306,-0.0275,-0.024,-0.0166,-0.0144,-0.0016,0.0014,0.0192,0.0266,0.0339,0.0453,0.0477,0.0463,0.0531,0.0534,0.0558,0.0454,0.0544,0.0551,0.0448,0.0447,0.0445,0.0513,0,-0.053,-0.0552,-0.0495,-0.0512,-0.0511,-0.0413,-0.0385,-0.0306,-0.0212,-0.0153,-0.001,0.0076,0.0208,0.026,0.0297,0.0426,0.0445,0.0444,0.0526,0.0529,0.0611,0.0546,0.0608,0.0677,0.051,0.051,0.0509,0,-0.0597,-0.06,-0.0639,-0.0614,-0.0608,-0.0598,-0.0546,-0.0503,-0.0398,-0.033,-0.0244,-0.0123,-0.0016,0.0082,0.0227,0.0208,0.0315,0.0408,0.0412,0.0537,0.0612,0.0719,0.0678,0.0868,0.0505,0.0506,0.0506,0,-0.0688,-0.0694,-0.0729,-0.0718,-0.0674,-0.068,-0.0651,-0.0563,-0.053,-0.0444,-0.0412,-0.0291,-0.02,-0.0095,0.0159,0.0161,0.0303,0.0326,0.0503,0.0513,0.0607,0.0627,0.0754,0.0379,0.0379,0.0379,0.0378,0,-0.0767,-0.0792,-0.0776,-0.079,-0.0835,-0.0771,-0.0791,-0.0741,-0.0679,-0.0653,-0.0508,-0.0446,-0.0249,-0.0107,0.0073,0.0301,0.0233,0.0482,0.0522,0.0568,0.0583,0.0789,0.0866,0.0381,0.0381,0.038,0.038,0,-0.0842,-0.0831,-0.0872,-0.0869,-0.0872,-0.0898,-0.088,-0.0886,-0.0812,-0.0782,-0.0758,-0.0577,-0.0383,-0.0157,0.0058,0.022,0.0539,0.0507,0.0581,0.0628,0.0948,0.1014,0.1177,0.1293,0.0671,0.0673,0.0675,0,-0.0878,-0.0907,-0.094,-0.0975,-0.0976,-0.1002,-0.1016,-0.0958,-0.0953,-0.0834,-0.0826,-0.0632,-0.045,-0.0083,0.0214,0.0509,0.0663,0.0733,0.0754,0.097,0.1072,0.1117,0.1205,0.0837,0.0841,0.0843,0.0845,0,-0.0948,-0.0959,-0.0994,-0.1071,-0.1106,-0.1142,-0.1153,-0.1167,-0.1087,-0.1012,-0.0872,-0.0718,-0.0338,0.0045,0.0435,0.0621,0.0881,0.0796,0.0979,0.1178,0.1272,0.1402,0.0821,0.0869,0.0866,0.0865,0.0863,0.0862,-0.0993,-0.1043,-0.1092,-0.116,-0.121,-0.1258,-0.1262,-0.1218,-0.1165,-0.0951,-0.0888,-0.0522,-0.0073,0.0501,0.0704,0.1155,0.1099,0.1298,0.1352,0.1372,0.1506,0.1002,0.1119,0.1118,0.1117,0.1116,0.1116,0,-0.104,-0.1094,-0.1176,-0.1252,-0.1317,-0.1316,-0.1327,-0.1239,-0.1112,-0.0825,-0.0605,-0.0034,0.045,0.0897,0.1447,0.1698,0.1746,0.182,0.1891,0.1947,0.1471,0.1504,0.1758,0.1758,0.1757,0.1757,0.1757,0.1757,-0.1065,-0.1149,-0.1194,-0.1312,-0.1364,-0.1374,-0.1358,-0.1128,-0.088,-0.0338,0.0101,0.0379,0.0873,0.1628,0.2143,0.2198,0.241,0.2395,0.2499,0.2174,0.2129,0.2086,0.2137,0.2519,0.252,0.2973,0.2977,0.2981]}],[{"header":{"parameterUnit":"m.s-1","parameterCategory":2,"la1":30.2991,"la2":30.254,"lo1":-89.0895,"lo2":-89.0444,"dy":0.0017,"dx":0.0017,"nx":28,"ny":28,"refTime":"2025-04-17T09:00:00:Z","depth":"2","parameterNumber":2,"parameterNumberName":"U-component_of_CURRENTS"},"data":[0,0,0,0,0,0,0,0,0,0,0,0,0,0,0,0,0,0,0,0,0,0,0,0,0,0,0,0,0,0,0,0,0,0,0,0,0,0,0,0,0,0,0,0,0,0,0,0,0,0,0,0,0,0,0,0,0,0,-0.2588,-0.2589,0,-0.2647,-0.2647,-0.2647,-0.2621,-0.262,-0.2619,-0.2618,-0.2714,-0.2717,-0.2721,0,0,0,0,0,0,0,0,0,0,0,0,0,-0.2517,-0.2518,-0.2587,-0.2589,-0.259,-0.2647,-0.2647,-0.2648,-0.2621,-0.262,-0.2619,-0.2617,-0.2713,-0.2717,-0.2721,0,0,0,0,0,0,0,0,0,0,0,0,0,-0.2555,-0.2518,-0.2587,-0.2586,-0.2587,-0.2647,-0.2647,-0.2648,-0.2621,-0.262,-0.2618,-0.2617,-0.2711,-0.2717,-0.2722,-0.2788,0,0,-0.2738,-0.2741,0,0,0,0,0,0,0,0,-0.2553,-0.2557,-0.2585,-0.2587,-0.2588,-0.2628,-0.2658,-0.2698,-0.2622,-0.2604,-0.2618,-0.2616,-0.2693,-0.2699,-0.2708,-0.2793,-0.2797,-0.2739,-0.2742,-0.2744,-0.2746,0,0,0,0,0,0,0,-0.255,-0.2555,-0.2607,-0.2587,-0.2588,-0.2606,-0.2608,-0.2665,-0.2655,-0.2606,-0.2605,-0.2618,-0.2693,-0.2703,-0.271,-0.2798,-0.2739,-0.2743,-0.2747,-0.2749,-0.2981,-0.2983,0,0,0,0,0,0,-0.255,-0.2553,-0.2605,-0.2609,-0.257,-0.2608,-0.2611,-0.2614,-0.2653,-0.2659,-0.262,-0.2617,-0.2694,-0.2704,-0.2714,-0.2805,-0.2744,-0.2749,-0.2753,-0.2978,-0.2981,-0.2984,0,0,0,0,0,0,-0.2548,-0.2553,-0.2603,-0.2586,-0.2594,-0.2611,-0.2615,-0.2616,-0.2633,-0.2664,-0.2669,-0.2636,-0.2694,-0.2706,-0.278,-0.2808,-0.2752,-0.2757,-0.2974,-0.2979,-0.2983,-0.2982,0,0,0,0,0,0,-0.2545,-0.2552,-0.2551,-0.2586,-0.2595,-0.266,-0.2617,-0.2618,-0.2645,-0.2642,-0.2681,-0.2687,-0.2693,-0.2772,-0.2786,-0.2814,-0.2761,-0.2971,-0.2976,-0.2981,-0.2978,-0.2985,-0.2992,0,0,0,0,0,-0.2542,-0.2556,-0.255,-0.2556,-0.2593,-0.2662,-0.267,-0.2673,-0.2648,-0.2677,-0.2696,-0.2686,-0.2816,-0.2779,-0.2794,-0.2825,-0.2968,-0.2975,-0.2981,-0.2975,-0.2984,-0.2992,0,0,0,0,0,0,-0.2527,-0.2556,-0.255,-0.2569,-0.2621,-0.266,-0.268,-0.2687,-0.2723,-0.2714,-0.2727,-0.2737,-0.2819,-0.2835,-0.2794,-0.2914,-0.2891,-0.2901,-0.2881,-0.289,-0.2897,-0.2811,-0.2765,0,0,0,0,0,-0.2524,-0.2529,-0.2581,-0.2595,-0.2623,-0.2653,-0.2677,-0.2691,-0.273,-0.2741,-0.278,-0.2816,-0.286,-0.2882,-0.294,-0.3004,-0.2963,-0.3037,-0.3044,-0.3049,-0.2995,-0.2965,-0.2961,-0.3006,-0.3006,-0.3006,0,0,-0.2521,-0.2535,-0.2539,-0.2591,-0.262,-0.2661,-0.2663,-0.2715,-0.2733,-0.2752,-0.2802,-0.2858,-0.289,-0.2959,-0.2996,-0.297,-0.3028,-0.3058,-0.3061,-0.3002,-0.297,-0.2965,-0.296,-0.301,-0.301,-0.3009,0,0,-0.2528,-0.2537,-0.2552,-0.2592,-0.265,-0.2678,-0.2699,-0.2769,-0.2783,-0.2855,-0.2865,-0.2903,-0.3015,-0.3002,-0.3012,-0.3091,-0.3079,-0.3168,-0.3111,-0.3085,-0.3078,-0.3072,-0.3044,-0.3035,-0.3152,-0.3152,-0.3152,0,-0.2524,-0.2539,-0.2575,-0.2605,-0.2631,-0.2684,-0.2721,-0.275,-0.2836,-0.2852,-0.2875,-0.2976,-0.2999,-0.3013,-0.3037,-0.3092,-0.31,-0.3069,-0.3085,-0.3077,-0.307,-0.3043,-0.3033,-0.3153,-0.3153,-0.3153,-0.3153,0,-0.2545,-0.2559,-0.258,-0.2615,-0.2659,-0.2707,-0.2759,-0.281,-0.2844,-0.2871,-0.2937,-0.297,-0.3005,-0.3049,-0.3057,-0.3051,-0.3083,-0.3106,-0.3041,-0.3064,-0.3037,-0.3026,-0.3154,-0.3154,-0.3154,-0.3153,0,0,-0.2516,-0.2581,-0.2581,-0.2595,-0.2667,-0.2705,-0.2746,-0.28,-0.2809,-0.2888,-0.2896,-0.2944,-0.2966,-0.2975,-0.3012,-0.2976,-0.2938,-0.3025,-0.3024,-0.2955,-0.2905,-0.2838,-0.2819,-0.2994,-0.2992,-0.299,-0.2914,0,-0.2517,-0.256,-0.2597,-0.2633,-0.2662,-0.2716,-0.2746,-0.2795,-0.2843,-0.288,-0.2882,-0.2922,-0.2939,-0.2966,-0.2932,-0.2961,-0.2908,-0.2956,-0.2926,-0.2923,-0.2825,-0.2802,-0.2616,-0.2525,-0.2903,-0.2901,-0.29,0,-0.2506,-0.2538,-0.2577,-0.2627,-0.2647,-0.2675,-0.2722,-0.2761,-0.2807,-0.2846,-0.2861,-0.29,-0.2865,-0.2881,-0.2835,-0.2893,-0.2872,-0.2868,-0.2867,-0.2773,-0.2833,-0.2562,-0.249,-0.2881,-0.2882,-0.2884,-0.2885,0,-0.244,-0.2508,-0.2532,-0.2551,-0.2631,-0.2648,-0.2688,-0.2744,-0.2774,-0.2811,-0.284,-0.2836,-0.2832,-0.2807,-0.2797,-0.2834,-0.2748,-0.2794,-0.2692,-0.269,-0.2495,-0.2477,-0.2701,-0.2701,-0.2701,-0.2701,-0.2701,0,-0.2402,-0.2414,-0.2501,-0.2509,-0.2536,-0.2603,-0.2631,-0.2675,-0.2731,-0.2754,-0.2804,-0.2809,-0.2819,-0.2797,-0.2779,-0.2692,-0.2721,-0.2635,-0.2644,-0.2499,-0.2484,-0.2764,-0.2772,-0.2698,-0.2699,-0.2699,-0.27,0,-0.2309,-0.2369,-0.2396,-0.2479,-0.2501,-0.2514,-0.2596,-0.2615,-0.2683,-0.271,-0.272,-0.2777,-0.2744,-0.2736,-0.269,-0.2649,-0.2587,-0.2543,-0.2372,-0.2359,-0.2552,-0.2562,-0.2407,-0.2403,-0.24,-0.2398,-0.2396,0,-0.2262,-0.2268,-0.2352,-0.2365,-0.2398,-0.244,-0.2467,-0.2566,-0.2595,-0.2681,-0.2679,-0.2683,-0.2648,-0.256,-0.2482,-0.2389,-0.2488,-0.2178,-0.2168,-0.2486,-0.2512,-0.2527,-0.2541,-0.1932,-0.1926,-0.1922,-0.1918,0,-0.2164,-0.2196,-0.2222,-0.2259,-0.2288,-0.233,-0.2381,-0.2403,-0.251,-0.2535,-0.2548,-0.2526,-0.2454,-0.2275,-0.2177,-0.211,-0.2182,-0.2079,-0.2423,-0.2048,-0.2035,-0.2063,-0.2092,-0.1876,-0.188,-0.1883,-0.1886,-0.1887,-0.2073,-0.2069,-0.2106,-0.2124,-0.2163,-0.2183,-0.216,-0.2234,-0.2253,-0.2249,-0.234,-0.2234,-0.2205,-0.1942,-0.1835,-0.175,-0.1903,-0.1826,-0.1841,-0.1861,-0.1831,-0.1815,-0.161,-0.1612,-0.1614,-0.1616,-0.1618,0,-0.1945,-0.1954,-0.1967,-0.1985,-0.1965,-0.2037,-0.2063,-0.2008,-0.1969,-0.2003,-0.1974,-0.1761,-0.1632,-0.1605,-0.1404,-0.1366,-0.1358,-0.1315,-0.1311,-0.1353,-0.1389,-0.1338,-0.0984,-0.0982,-0.098,-0.0978,0,0,-0.1875,-0.1833,-0.1842,-0.1766,-0.1775,-0.1684,-0.1658,-0.161,-0.1585,-0.1504,-0.1452,-0.1542,-0.1555,-0.1277,-0.1206,-0.106,-0.1193,-0.1001,-0.1509,-0.1545,-0.158,-0.1681,-0.1647,0,0,0,0,0]},{"header":{"parameterUnit":"m.s-1","parameterCategory":2,"la1":30.2991,"la2":30.254,"lo1":-89.0895,"lo2":-89.0444,"dy":0.0017,"dx":0.0017,"nx":28,"ny":28,"refTime":"2025-04-17T09:00:00:Z","depth":"2","parameterNumber":3,"parameterNumberName":"V-component_of_CURRENTS"},"data":[0,0,0,0,0,0,0,0,0,0,0,0,0,0,0,0,0,0,0,0,0,0,0,0,0,0,0,0,0,0,0,0,0,0,0,0,0,0,0,0,0,0,0,0,0,0,0,0,0,0,0,0,0,0,0,0,0,0,-0.0322,-0.0321,0,-0.0245,-0.0244,-0.0243,-0.0167,-0.0166,-0.0164,-0.0163,-0.0004,-0.0001,0.0002,0,0,0,0,0,0,0,0,0,0,0,0,0,-0.038,-0.038,-0.0322,-0.0321,-0.032,-0.0245,-0.0244,-0.0243,-0.0167,-0.0165,-0.0164,-0.0163,-0.0005,-0.0001,0.0002,0,0,0,0,0,0,0,0,0,0,0,0,0,-0.0336,-0.038,-0.0322,-0.0271,-0.0266,-0.0245,-0.0244,-0.0243,-0.0167,-0.0165,-0.0164,-0.0162,-0.0006,-0.0002,0.0003,-0.0002,0,0,0.0017,0.0019,0,0,0,0,0,0,0,0,-0.0338,-0.0334,-0.028,-0.0275,-0.0269,-0.0212,-0.0206,-0.0158,-0.0168,-0.0206,-0.0163,-0.0161,-0.0066,-0.0057,-0.0049,0.0005,0.0012,0.0018,0.0021,0.0023,0.0024,0,0,0,0,0,0,0,-0.0342,-0.0337,-0.0293,-0.0279,-0.0272,-0.0245,-0.0237,-0.0197,-0.0147,-0.0203,-0.0197,-0.0186,-0.0063,-0.0054,-0.0045,0.0014,0.0018,0.0022,0.0025,0.0027,0.0145,0.0145,0,0,0,0,0,0,-0.0351,-0.034,-0.0295,-0.029,-0.0298,-0.0245,-0.0236,-0.0233,-0.0149,-0.0134,-0.0188,-0.0183,-0.0063,-0.005,-0.0039,0.0011,0.0023,0.0027,0.003,0.0145,0.0145,0.0145,0,0,0,0,0,0,-0.0353,-0.0348,-0.0298,-0.0311,-0.0303,-0.0246,-0.0243,-0.0233,-0.0214,-0.0138,-0.0122,-0.0178,-0.0061,-0.0045,-0.0011,0.0017,0.0029,0.0034,0.0144,0.0145,0.0145,0.0079,0,0,0,0,0,0,-0.0355,-0.035,-0.0357,-0.0313,-0.0302,-0.0285,-0.0244,-0.0232,-0.021,-0.0202,-0.0124,-0.0108,-0.0059,-0.0019,-0.0007,0.0023,0.0037,0.0144,0.0145,0.0145,0.0081,0.0077,0.0074,0,0,0,0,0,-0.0358,-0.0374,-0.0358,-0.0353,-0.0313,-0.0286,-0.0278,-0.0232,-0.0211,-0.0209,-0.0165,-0.011,-0.0005,-0.0017,-0.0002,0.0031,0.0144,0.0144,0.0145,0.0083,0.0078,0.0074,0,0,0,0,0,0,-0.0401,-0.0366,-0.0348,-0.0352,-0.0321,-0.0272,-0.027,-0.0239,-0.0205,-0.0199,-0.0126,-0.0108,-0.0059,-0.0017,-0.0031,0.0068,0.0087,0.009,0.0034,0.0031,0.0027,-0.0003,0.0041,0,0,0,0,0,-0.0417,-0.042,-0.0376,-0.0381,-0.0369,-0.0322,-0.0307,-0.0278,-0.0239,-0.0222,-0.0163,-0.0102,-0.0048,-0.0014,0.0037,0.0073,0.0111,0.0111,0.0107,0.0104,0.0089,0.0153,0.0153,0.0148,0.0148,0.0148,0,0,-0.0434,-0.0416,-0.0417,-0.039,-0.0365,-0.0357,-0.0309,-0.0293,-0.0282,-0.0211,-0.0179,-0.0117,-0.0043,0.0005,0.0033,0.0045,0.0127,0.0105,0.0101,0.0088,0.0153,0.0154,0.0154,0.0148,0.0148,0.0148,0,0,-0.0473,-0.0457,-0.0471,-0.0453,-0.0422,-0.039,-0.0387,-0.0337,-0.0309,-0.0285,-0.0216,-0.0161,-0.008,-0.002,0.002,0.0022,0.0103,0.0068,0.0031,0.0093,0.0094,0.0095,0.0145,0.0151,0.0071,0.0071,0.0071,0,-0.0496,-0.0504,-0.0471,-0.0479,-0.0465,-0.0408,-0.0414,-0.0386,-0.0328,-0.0301,-0.0284,-0.0155,-0.0098,-0.0024,-0.0018,0.0014,0.0064,0.0039,0.0087,0.0089,0.0091,0.0142,0.015,0.0068,0.0068,0.0068,0.0069,0,-0.0541,-0.0546,-0.0554,-0.0542,-0.0526,-0.0523,-0.0476,-0.045,-0.041,-0.0365,-0.0292,-0.0223,-0.014,-0.0099,-0.0062,0.0006,0.0041,0.007,0.0091,0.0087,0.0142,0.0151,0.0063,0.0064,0.0065,0.0066,0,0,-0.0594,-0.0586,-0.0589,-0.0592,-0.0559,-0.055,-0.0531,-0.0484,-0.0461,-0.0399,-0.0358,-0.0268,-0.021,-0.0163,-0.0084,-0.0033,0.002,0.0023,0.0028,0.0061,0.0163,0.02,0.0214,0.0072,0.0073,0.0074,0.0195,0,-0.0635,-0.0667,-0.0644,-0.0662,-0.067,-0.0615,-0.06,-0.0552,-0.0496,-0.0443,-0.0356,-0.0291,-0.0236,-0.019,-0.013,-0.0014,0.0042,-0.0015,0.0171,0.0176,0.0201,0.0224,0.0202,0.0309,0.0204,0.0205,0.0206,0,-0.0686,-0.0698,-0.0727,-0.0717,-0.0714,-0.0713,-0.0665,-0.0644,-0.0555,-0.0511,-0.0428,-0.0347,-0.0254,-0.0217,-0.0041,-0.0071,0.0033,0.0114,0.0121,0.0182,0.023,0.0298,0.033,0.0222,0.0221,0.022,0.0218,0,-0.0741,-0.0754,-0.0777,-0.0777,-0.0757,-0.0753,-0.0733,-0.0662,-0.064,-0.0547,-0.0514,-0.0385,-0.0323,-0.0184,-0.0017,-0.0018,0.0172,0.0193,0.0324,0.0328,0.0355,0.0359,0.0309,0.0309,0.0309,0.0308,0.0308,0,-0.0795,-0.0814,-0.0808,-0.0826,-0.085,-0.0811,-0.081,-0.0768,-0.0704,-0.0672,-0.0552,-0.0492,-0.031,-0.0172,-0.0025,0.0178,0.0172,0.0318,0.0365,0.0332,0.0333,0.0291,0.0288,0.0313,0.0312,0.0311,0.031,0,-0.0854,-0.0848,-0.0882,-0.0879,-0.0881,-0.09,-0.0883,-0.0875,-0.0803,-0.0758,-0.0732,-0.0569,-0.0382,-0.0191,0.004,0.0167,0.0353,0.0429,0.0372,0.041,0.0467,0.0459,0.0579,0.0582,0.0584,0.0586,0.0587,0,-0.0886,-0.091,-0.0937,-0.0966,-0.097,-0.0987,-0.0996,-0.0938,-0.0922,-0.0795,-0.0776,-0.0589,-0.0433,-0.0085,0.016,0.0426,0.0423,0.0555,0.0541,0.0463,0.0497,0.0485,0.0474,0.0554,0.0555,0.0556,0.0556,0,-0.0947,-0.0956,-0.0984,-0.1049,-0.1077,-0.1101,-0.1102,-0.1105,-0.102,-0.094,-0.08,-0.0662,-0.0329,-0.0031,0.0301,0.0452,0.0506,0.0582,0.0537,0.0483,0.0448,0.0478,0.0466,0.0564,0.0563,0.0563,0.0562,0.0562,-0.0987,-0.1028,-0.107,-0.1127,-0.1166,-0.1197,-0.1207,-0.1171,-0.1114,-0.0971,-0.0832,-0.0582,-0.0312,0.0173,0.0408,0.0616,0.0609,0.0668,0.0662,0.0655,0.0625,0.0595,0.0733,0.0733,0.0733,0.0733,0.0733,0,-0.1032,-0.1077,-0.1143,-0.1206,-0.126,-0.1256,-0.1261,-0.1232,-0.1145,-0.0974,-0.0788,-0.0448,-0.0097,0.0176,0.0519,0.0724,0.0698,0.075,0.0677,0.0669,0.0662,0.0628,0.0739,0.0739,0.074,0.074,0,0,-0.1056,-0.1128,-0.1163,-0.1263,-0.1308,-0.1339,-0.1333,-0.1258,-0.1134,-0.0931,-0.0722,-0.0449,-0.01,0.0147,0.0403,0.0577,0.0562,0.059,0.0566,0.044,0.0431,0.06,0.0538,0,0,0,0,0]}],[{"header":{"parameterUnit":"m.s-1","parameterCategory":2,"la1":30.2991,"la2":30.254,"lo1":-89.0895,"lo2":-89.0444,"dy":0.0017,"dx":0.0017,"nx":28,"ny":28,"refTime":"2025-04-17T09:00:00:Z","depth":"4","parameterNumber":2,"parameterNumberName":"U-component_of_CURRENTS"},"data":[0,0,0,0,0,0,0,0,0,0,0,0,0,0,0,0,0,0,0,0,0,0,0,0,0,0,0,0,0,0,0,0,0,0,0,0,0,0,0,0,0,0,0,0,0,0,0,0,0,0,0,0,0,0,0,0,0,0,-0.1709,-0.171,0,-0.1767,-0.1767,-0.1768,-0.1778,-0.1778,-0.1777,-0.1777,-0.1836,-0.1838,-0.184,0,0,0,0,0,0,0,0,0,0,0,0,0,-0.1657,-0.1657,-0.1709,-0.171,-0.1711,-0.1766,-0.1767,-0.1768,-0.1778,-0.1778,-0.1777,-0.1777,-0.1836,-0.1838,-0.184,0,0,0,0,0,0,0,0,0,0,0,0,0,-0.1691,-0.1657,-0.1709,-0.1724,-0.1726,-0.1766,-0.1767,-0.1768,-0.1778,-0.1778,-0.1777,-0.1777,-0.1835,-0.1838,-0.184,-0.1867,0,0,-0.1849,-0.185,0,0,0,0,0,0,0,0,-0.1689,-0.1693,-0.1721,-0.1723,-0.1725,-0.1766,-0.1771,-0.1802,-0.1778,-0.1756,-0.1777,-0.1776,-0.1815,-0.1819,-0.1828,-0.187,-0.1872,-0.1849,-0.1851,-0.1852,-0.1853,0,0,0,0,0,0,0,-0.1687,-0.1691,-0.173,-0.1722,-0.1725,-0.1745,-0.1748,-0.1777,-0.1786,-0.1758,-0.1759,-0.1769,-0.1815,-0.1825,-0.183,-0.1873,-0.1849,-0.1852,-0.1853,-0.1854,-0.2,-0.2002,0,0,0,0,0,0,-0.1681,-0.1688,-0.1728,-0.1732,-0.1708,-0.1746,-0.175,-0.1752,-0.1786,-0.1791,-0.1769,-0.1769,-0.1821,-0.1826,-0.1832,-0.1894,-0.1852,-0.1855,-0.1856,-0.1998,-0.2,-0.2003,0,0,0,0,0,0,-0.168,-0.1684,-0.1726,-0.1713,-0.172,-0.1747,-0.1749,-0.1753,-0.1786,-0.1794,-0.1799,-0.1801,-0.1821,-0.1828,-0.1883,-0.1895,-0.1856,-0.1859,-0.1995,-0.1998,-0.2001,-0.2,0,0,0,0,0,0,-0.1678,-0.1683,-0.1695,-0.1713,-0.1721,-0.1766,-0.175,-0.1755,-0.1792,-0.1793,-0.1823,-0.1826,-0.1821,-0.1879,-0.1886,-0.1898,-0.1861,-0.1992,-0.1997,-0.2,-0.1997,-0.2003,-0.2008,0,0,0,0,0,-0.1676,-0.1692,-0.1695,-0.1701,-0.1732,-0.1768,-0.1774,-0.179,-0.1795,-0.1817,-0.1841,-0.1826,-0.1909,-0.1883,-0.1891,-0.1904,-0.199,-0.1995,-0.2,-0.1995,-0.2002,-0.2008,0,0,0,0,0,0,-0.1679,-0.1695,-0.1699,-0.1719,-0.1749,-0.177,-0.18,-0.181,-0.1847,-0.1857,-0.1857,-0.1864,-0.1908,-0.1925,-0.1896,-0.1964,-0.1947,-0.1954,-0.1941,-0.1947,-0.1952,-0.1961,-0.1863,0,0,0,0,0,-0.1684,-0.1697,-0.1721,-0.1741,-0.1762,-0.1787,-0.1809,-0.1823,-0.1852,-0.1869,-0.1891,-0.1918,-0.1933,-0.1956,-0.1976,-0.2025,-0.2028,-0.2042,-0.2047,-0.2051,-0.2067,-0.2095,-0.2103,-0.2019,-0.2019,-0.2019,0,0,-0.1692,-0.1702,-0.1711,-0.1743,-0.177,-0.1804,-0.18,-0.1847,-0.1872,-0.1871,-0.1928,-0.1938,-0.1951,-0.1989,-0.2012,-0.2006,-0.2073,-0.2057,-0.206,-0.2074,-0.2101,-0.2109,-0.2116,-0.2022,-0.2022,-0.2021,0,0,-0.171,-0.1727,-0.1747,-0.1774,-0.182,-0.1838,-0.1858,-0.1902,-0.1922,-0.1977,-0.1969,-0.1996,-0.2046,-0.2043,-0.2047,-0.2105,-0.2094,-0.2119,-0.2155,-0.2182,-0.2188,-0.2194,-0.2181,-0.2186,-0.2127,-0.2128,-0.2128,0,-0.1725,-0.1743,-0.1762,-0.1791,-0.1823,-0.1856,-0.1896,-0.1921,-0.1975,-0.2002,-0.2002,-0.2067,-0.2064,-0.2093,-0.2102,-0.2111,-0.2123,-0.2118,-0.2185,-0.2191,-0.2197,-0.2183,-0.2188,-0.2128,-0.2128,-0.2128,-0.2128,0,-0.1747,-0.1778,-0.18,-0.184,-0.1876,-0.1923,-0.1959,-0.2006,-0.2039,-0.206,-0.2116,-0.2122,-0.2159,-0.2154,-0.2141,-0.2183,-0.2174,-0.2176,-0.2157,-0.2204,-0.2187,-0.2193,-0.2129,-0.2129,-0.2128,-0.2128,0,0,-0.1739,-0.1805,-0.1816,-0.1845,-0.1911,-0.1942,-0.2001,-0.2061,-0.2101,-0.2148,-0.2198,-0.2209,-0.2221,-0.2229,-0.2218,-0.2237,-0.2255,-0.2232,-0.2233,-0.2199,-0.23,-0.2122,-0.211,-0.2276,-0.2277,-0.2279,-0.226,0,-0.176,-0.1816,-0.1849,-0.1916,-0.1951,-0.2008,-0.2058,-0.2112,-0.2159,-0.2215,-0.223,-0.2268,-0.2245,-0.2261,-0.2279,-0.2265,-0.2276,-0.2259,-0.228,-0.2279,-0.2098,-0.2113,-0.2284,-0.2264,-0.2265,-0.2266,-0.2266,0,-0.1759,-0.1802,-0.187,-0.1952,-0.1978,-0.2027,-0.2121,-0.2167,-0.2242,-0.2281,-0.233,-0.2343,-0.2368,-0.2346,-0.236,-0.2358,-0.2337,-0.2323,-0.2322,-0.2164,-0.2112,-0.2218,-0.2276,-0.2275,-0.2274,-0.2274,-0.2273,0,-0.1715,-0.181,-0.1867,-0.1896,-0.1995,-0.205,-0.211,-0.2193,-0.2235,-0.2322,-0.2358,-0.2407,-0.2419,-0.2431,-0.2384,-0.2391,-0.2388,-0.2389,-0.221,-0.2196,-0.2362,-0.2357,-0.241,-0.241,-0.241,-0.241,-0.241,0,-0.169,-0.1738,-0.1859,-0.1884,-0.1962,-0.204,-0.2122,-0.2187,-0.2277,-0.2312,-0.2384,-0.2401,-0.2447,-0.244,-0.2413,-0.2303,-0.2409,-0.2212,-0.2183,-0.2359,-0.2354,-0.2363,-0.2358,-0.2409,-0.241,-0.241,-0.241,0,-0.1608,-0.1691,-0.176,-0.1891,-0.1935,-0.1986,-0.2114,-0.2159,-0.2259,-0.2308,-0.2335,-0.2405,-0.2384,-0.2389,-0.2383,-0.2299,-0.224,-0.2178,-0.234,-0.2322,-0.2027,-0.2023,-0.1985,-0.1979,-0.1974,-0.1969,-0.1965,0,-0.1562,-0.1592,-0.1742,-0.1783,-0.1847,-0.1942,-0.1998,-0.2128,-0.2166,-0.2277,-0.2277,-0.2307,-0.2324,-0.216,-0.2199,-0.2124,-0.2097,-0.2055,-0.2064,-0.2009,-0.1986,-0.199,-0.1993,-0.1957,-0.1955,-0.1954,-0.1952,0,-0.1473,-0.1544,-0.1602,-0.1692,-0.1767,-0.184,-0.1931,-0.1945,-0.207,-0.2183,-0.2144,-0.2112,-0.2077,-0.2042,-0.1982,-0.1939,-0.208,-0.1998,-0.201,-0.2018,-0.1974,-0.1957,-0.1966,-0.1934,-0.1936,-0.1938,-0.1939,0,-0.1405,-0.1426,-0.1514,-0.1575,-0.1664,-0.1698,-0.1771,-0.1805,-0.1857,-0.1979,-0.1959,-0.1987,-0.2055,-0.1944,-0.1899,-0.1826,-0.1806,-0.1751,-0.1775,-0.1796,-0.1739,-0.1656,-0.1487,0,0,0,0,0,-0.1327,-0.1335,-0.1385,-0.1448,-0.153,-0.1578,-0.17,-0.1776,-0.1898,-0.1814,-0.1879,-0.1833,-0.1755,-0.1778,-0.1659,-0.1816,-0.1818,-0.1671,-0.1771,-0.183,-0.1851,-0.18,0,0,0,0,0,0,-0.1274,-0.1317,-0.1336,-0.132,-0.1331,-0.1408,-0.1476,-0.1571,-0.1537,-0.1658,-0.1621,-0.1706,-0.1656,-0.1774,-0.1612,-0.1616,-0.1638,-0.1699,-0.1694,-0.1818,-0.1837,-0.1855,-0.1809,0,0,0,0,0]},{"header":{"parameterUnit":"m.s-1","parameterCategory":2,"la1":30.2991,"la2":30.254,"lo1":-89.0895,"lo2":-89.0444,"dy":0.0017,"dx":0.0017,"nx":28,"ny":28,"refTime":"2025-04-17T09:00:00:Z","depth":"4","parameterNumber":3,"parameterNumberName":"V-component_of_CURRENTS"},"data":[0,0,0,0,0,0,0,0,0,0,0,0,0,0,0,0,0,0,0,0,0,0,0,0,0,0,0,0,0,0,0,0,0,0,0,0,0,0,0,0,0,0,0,0,0,0,0,0,0,0,0,0,0,0,0,0,0,0,-0.031,-0.031,0,-0.0289,-0.0289,-0.0289,-0.0248,-0.0247,-0.0246,-0.0245,-0.0168,-0.0167,-0.0165,0,0,0,0,0,0,0,0,0,0,0,0,0,-0.0318,-0.0318,-0.031,-0.031,-0.0309,-0.0289,-0.0289,-0.0289,-0.0248,-0.0247,-0.0246,-0.0244,-0.0168,-0.0167,-0.0165,0,0,0,0,0,0,0,0,0,0,0,0,0,-0.0309,-0.0318,-0.031,-0.0286,-0.0283,-0.0289,-0.0289,-0.0289,-0.0248,-0.0247,-0.0245,-0.0244,-0.0169,-0.0167,-0.0165,-0.0182,0,0,-0.016,-0.0159,0,0,0,0,0,0,0,0,-0.031,-0.0309,-0.029,-0.0287,-0.0284,-0.0268,-0.0263,-0.025,-0.0248,-0.0263,-0.0245,-0.0243,-0.0196,-0.0192,-0.0194,-0.0179,-0.0175,-0.016,-0.0159,-0.0158,-0.0157,0,0,0,0,0,0,0,-0.031,-0.031,-0.0303,-0.0289,-0.0286,-0.0276,-0.0274,-0.0261,-0.0238,-0.0261,-0.0258,-0.0254,-0.0194,-0.0196,-0.0192,-0.0174,-0.016,-0.0158,-0.0157,-0.0156,-0.0156,-0.0157,0,0,0,0,0,0,-0.0312,-0.031,-0.0304,-0.0302,-0.0292,-0.0277,-0.0274,-0.0276,-0.0239,-0.0232,-0.0255,-0.0252,-0.02,-0.0194,-0.0189,-0.0196,-0.0158,-0.0156,-0.0155,-0.0155,-0.0156,-0.0157,0,0,0,0,0,0,-0.0312,-0.0312,-0.0305,-0.0304,-0.0302,-0.0278,-0.0281,-0.0276,-0.0275,-0.0235,-0.0226,-0.0258,-0.0198,-0.0191,-0.018,-0.0193,-0.0155,-0.0154,-0.0153,-0.0155,-0.0157,-0.0216,0,0,0,0,0,0,-0.0312,-0.0312,-0.0321,-0.0305,-0.0302,-0.0311,-0.0282,-0.0277,-0.0274,-0.027,-0.0234,-0.0226,-0.0197,-0.0183,-0.0178,-0.0189,-0.0152,-0.0152,-0.0154,-0.0156,-0.0213,-0.022,-0.0226,0,0,0,0,0,-0.0313,-0.0329,-0.0322,-0.0321,-0.0314,-0.0312,-0.0311,-0.0289,-0.0276,-0.0282,-0.0257,-0.0227,-0.0192,-0.0183,-0.0177,-0.0188,-0.0151,-0.0154,-0.0156,-0.021,-0.0219,-0.0225,0,0,0,0,0,0,-0.0337,-0.0326,-0.0318,-0.0329,-0.0322,-0.0304,-0.031,-0.0297,-0.0286,-0.0281,-0.0241,-0.0231,-0.0229,-0.0204,-0.0195,-0.0195,-0.0167,-0.0168,-0.021,-0.0218,-0.0224,-0.0195,-0.0151,0,0,0,0,0,-0.0348,-0.0357,-0.0342,-0.0353,-0.035,-0.0334,-0.0332,-0.032,-0.0304,-0.0298,-0.0273,-0.0249,-0.0238,-0.0223,-0.021,-0.0209,-0.0146,-0.0213,-0.0219,-0.0224,-0.0199,-0.011,-0.0104,-0.0165,-0.0165,-0.0165,0,0,-0.0361,-0.0356,-0.0362,-0.0359,-0.0352,-0.0357,-0.033,-0.0332,-0.0335,-0.0292,-0.029,-0.0274,-0.0245,-0.0245,-0.024,-0.0221,-0.0184,-0.0227,-0.0232,-0.0202,-0.0111,-0.0105,-0.0099,-0.0166,-0.0166,-0.0166,0,0,-0.039,-0.0387,-0.0403,-0.0401,-0.0394,-0.0382,-0.0385,-0.0371,-0.0363,-0.0368,-0.0336,-0.0318,-0.031,-0.0277,-0.0263,-0.0295,-0.0226,-0.0306,-0.0304,-0.022,-0.0213,-0.0206,-0.015,-0.0138,-0.0301,-0.0301,-0.0301,0,-0.0407,-0.0421,-0.0408,-0.042,-0.0419,-0.0395,-0.0407,-0.0402,-0.0387,-0.0372,-0.0374,-0.0334,-0.0319,-0.0285,-0.0302,-0.0305,-0.0252,-0.0279,-0.0224,-0.0215,-0.0207,-0.0151,-0.0137,-0.0304,-0.0304,-0.0304,-0.0303,0,-0.0442,-0.0455,-0.0464,-0.0468,-0.0467,-0.0475,-0.0459,-0.0455,-0.0446,-0.0427,-0.0402,-0.0377,-0.0337,-0.0348,-0.0338,-0.0282,-0.0265,-0.0247,-0.0198,-0.0204,-0.0147,-0.013,-0.0309,-0.0308,-0.0307,-0.0306,0,0,-0.0475,-0.0486,-0.0491,-0.0498,-0.0492,-0.0495,-0.0494,-0.0475,-0.046,-0.0446,-0.0413,-0.0401,-0.0365,-0.0345,-0.0323,-0.0257,-0.0184,-0.0232,-0.0226,-0.0165,-0.0007,-0.0042,-0.0027,-0.015,-0.0147,-0.0144,-0.0001,0,-0.0505,-0.0539,-0.0531,-0.0556,-0.0568,-0.0541,-0.0541,-0.0519,-0.0493,-0.0459,-0.0408,-0.0382,-0.0371,-0.0356,-0.0285,-0.0214,-0.0137,-0.0224,-0.0018,-0.0012,-0.0032,-0.0008,-0.0134,0.0012,0.0016,0.0018,0.0021,0,-0.054,-0.0557,-0.0589,-0.0592,-0.0594,-0.0605,-0.0577,-0.0573,-0.0511,-0.0487,-0.0423,-0.0379,-0.0299,-0.0289,-0.012,-0.0176,-0.0086,-0.0023,-0.0015,-0.0003,-0.0015,0.0026,0.0052,0.0049,0.0047,0.0045,0.0043,0,-0.0569,-0.0594,-0.062,-0.0625,-0.0627,-0.0632,-0.0628,-0.0583,-0.0571,-0.0494,-0.0466,-0.0355,-0.0309,-0.0171,-0.006,-0.0076,0.0133,0.013,0.0194,0.0192,0.0208,0.02,0.029,0.0289,0.0289,0.0289,0.0288,0,-0.0598,-0.0621,-0.0642,-0.0659,-0.0687,-0.067,-0.0676,-0.065,-0.06,-0.057,-0.0482,-0.0425,-0.0272,-0.0148,-0.0033,0.0122,0.0164,0.0217,0.0241,0.0171,0.0157,0.0218,0.0208,0.0294,0.0293,0.0292,0.0291,0,-0.0626,-0.0638,-0.0676,-0.0696,-0.0707,-0.0729,-0.0732,-0.0724,-0.0671,-0.0623,-0.06,-0.0465,-0.0305,-0.0152,0.0065,0.0141,0.0298,0.0351,0.0253,0.0265,0.0295,0.0279,0.0446,0.0446,0.0446,0.0446,0.0447,0,-0.064,-0.0664,-0.0716,-0.0748,-0.0765,-0.0793,-0.0807,-0.0771,-0.075,-0.0643,-0.0613,-0.0459,-0.0355,-0.007,0.008,0.0311,0.0337,0.0413,0.0372,0.0311,0.0318,0.0302,0.0287,0.0447,0.0447,0.0447,0.0447,0,-0.0668,-0.0694,-0.0726,-0.0797,-0.0834,-0.086,-0.0869,-0.0859,-0.0792,-0.0747,-0.0597,-0.0444,-0.0264,-0.0065,0.0109,0.0272,0.0355,0.0416,0.0416,0.0379,0.0315,0.0318,0.0303,0.0448,0.0448,0.0448,0.0448,0,-0.0689,-0.0725,-0.0778,-0.0832,-0.0886,-0.0906,-0.0907,-0.0856,-0.082,-0.0688,-0.0638,-0.0433,-0.031,-0.0082,0.008,0.0227,0.0261,0.0299,0.0306,0.0307,0.0207,0.0102,0.0214,0,0,0,0,0,-0.0703,-0.0745,-0.0806,-0.0863,-0.0916,-0.0942,-0.0936,-0.0916,-0.085,-0.0746,-0.0685,-0.0507,-0.0246,-0.0129,0.0017,0.0057,0.0259,0.0228,0.0299,0.0452,0.0451,0.0353,0,0,0,0,0,0,-0.0713,-0.0776,-0.0806,-0.0874,-0.0919,-0.0962,-0.0961,-0.0917,-0.0839,-0.0753,-0.0607,-0.0499,-0.0247,-0.0335,0.0009,0.0055,0.0114,0.036,0.0363,0.0453,0.0452,0.0451,0.035,0,0,0,0,0]}]]